Tucson, AZ

7:24 AM MST on November 19, 2017 (GMT -0700)
Tucson International

Weather History for KTUS - April, 2013

Change the Weather History Date:

Monday, April 8, 2013

  Actual Average Record
Temperature  
Mean Temperature 67 °F 65 °F  
Max Temperature 84 °F 80 °F 99 °F (1989)
Min Temperature 49 °F 50 °F 33 °F (1929)
Degree Days  
Heating Degree Days 0 3  
Month to date heating degree days 0 25  
Since 1 July heating degree days 1336 1471  
Cooling Degree Days 2 3  
Month to date cooling degree days 39 18  
Year to date cooling degree days 130 51  
Growing Degree Days 16 (Base 50)    
Moisture  
Dew Point 33 °F    
Average Humidity 35    
Maximum Humidity 59    
Minimum Humidity 11    
Precipitation  
Precipitation 0.07 in 0.01 in 1.03 in (1919)
Month to date precipitation 0.07 0.12  
Year to date precipitation 1.68 2.65  
Snow  
Snow 0.00 in - - ()
Month to date snowfall 0.0  
Snow Depth 0.00 in    
Sea Level Pressure  
Sea Level Pressure 29.53 in    
Wind  
Wind Speed 19 mph (SSW)    
Max Wind Speed 37 mph    
Max Gust Speed 49 mph    
Visibility 9 miles    
Events Rain    
T = Trace of Precipitation, MM = Missing Value Source: NWS Daily Summary

Daily Weather History Graph

Daily Weather History Graph

Search for Another Location

Airport or City:

Trip Planner

Search our weather history database for the weather conditions in past years. The results will help you decide how hot, cold, wet, or windy it might be!

Date:

Astronomy

Apr. 08, 2013 Rise Set
Actual Time 6:02 AM MST 6:48 PM MST
Civil Twilight 5:38 AM MST 7:13 PM MST
Nautical Twilight 5:08 AM MST 7:42 PM MST
Astronomical Twilight 4:38 AM MST 8:12 PM MST
Moon 4:50 AM MST (4/8) 5:29 PM MST (4/8)
Length of Visible Light 13h 35m
Length of Day
12h 45m
Waning Crescent, 3% of the Moon is Illuminated
Apr 8
Waning Crescent
Apr 10
New
Apr 18
First Quarter
Apr 25
Full
May 2
Last Quarter

Hourly Weather History & Observations

Time (MST) Temp. Dew Point Humidity Pressure Visibility Wind Dir Wind Speed Gust Speed Precip Events Conditions
12:53 AM 66.9 °F 33.1 °F 28% 29.69 in 10.0 mi South 8.1 mph - N/A   Clear
1:53 AM 66.9 °F 34.0 °F 30% 29.66 in 10.0 mi South 6.9 mph - N/A   Clear
2:53 AM 64.9 °F 34.0 °F 32% 29.63 in 10.0 mi South 6.9 mph - N/A   Clear
3:53 AM 62.6 °F 33.8 °F 34% 29.73 in 10.0 mi South 9.2 mph - N/A   Clear
4:53 AM 63.0 °F 33.1 °F 33% 29.60 in 10.0 mi ESE 6.9 mph - N/A   Clear
5:53 AM 64.0 °F 33.1 °F 31% 29.61 in 10.0 mi ESE 5.8 mph - N/A   Clear
6:53 AM 64.9 °F 36.0 °F 34% 29.61 in 10.0 mi SSW 5.8 mph - N/A   Clear
7:53 AM 70.0 °F 37.0 °F 30% 29.60 in 10.0 mi South 13.8 mph 27.6 mph N/A   Clear
8:53 AM 73.0 °F 36.0 °F 26% 29.57 in 10.0 mi South 20.7 mph 29.9 mph N/A   Clear
9:53 AM 75.9 °F 35.1 °F 23% 29.54 in 10.0 mi SSW 24.2 mph - N/A   Clear
10:53 AM 78.1 °F 34.0 °F 20% 29.53 in 6.0 mi SSW 26.5 mph 38.0 mph N/A   Haze
11:15 AM 80.1 °F 30.0 °F 16% 29.62 in 2.5 mi SSW 29.9 mph 47.2 mph N/A   Haze
11:25 AM 81.0 °F 30.9 °F 16% 29.62 in 10.0 mi SSW 25.3 mph 41.4 mph N/A   Mostly Cloudy
11:46 AM 81.0 °F 32.0 °F 17% 29.61 in 10.0 mi SSW 31.1 mph 42.6 mph N/A   Scattered Clouds
11:53 AM 81.0 °F 32.0 °F 17% 29.47 in 10.0 mi SSW 32.2 mph 43.7 mph N/A   Mostly Cloudy
12:14 PM 82.0 °F 32.0 °F 16% 29.59 in 7.0 mi SSW 27.6 mph 44.9 mph N/A   Mostly Cloudy
12:24 PM 82.0 °F 30.9 °F 16% 29.59 in 9.0 mi SW 32.2 mph 43.7 mph N/A   Scattered Clouds
12:53 PM 82.0 °F 33.1 °F 17% 29.46 in 9.0 mi SSW 32.2 mph 43.7 mph N/A   Scattered Clouds
1:53 PM 82.0 °F 36.0 °F 19% 29.45 in 10.0 mi SSW 28.8 mph 44.9 mph N/A   Partly Cloudy
2:53 PM 82.9 °F 25.0 °F 12% 29.40 in 9.0 mi SSW 31.1 mph 43.7 mph N/A   Scattered Clouds
3:53 PM 82.0 °F 23.0 °F 11% 29.35 in 10.0 mi SSW 32.2 mph 43.7 mph N/A   Partly Cloudy
4:53 PM 80.1 °F 30.0 °F 16% 29.35 in 10.0 mi SW 25.3 mph 43.7 mph N/A   Clear
5:53 PM 77.0 °F 33.1 °F 20% 29.34 in 6.0 mi SSW 25.3 mph 43.7 mph N/A   Haze
6:08 PM 75.9 °F 32.0 °F 20% 29.46 in 9.0 mi SSW 19.6 mph 36.8 mph N/A   Mostly Cloudy
6:22 PM 75.0 °F 32.0 °F 21% 29.45 in 10.0 mi SSW 21.9 mph 34.5 mph N/A   Mostly Cloudy
6:35 PM 73.9 °F 30.9 °F 21% 29.46 in 5.0 mi SSW 20.7 mph 34.5 mph N/A   Haze
6:53 PM 73.0 °F 30.9 °F 21% 29.37 in 9.0 mi SW 23.0 mph 38.0 mph N/A   Mostly Cloudy
7:00 PM 73.0 °F 30.9 °F 21% 29.48 in 10.0 mi WSW 13.8 mph 32.2 mph N/A   Scattered Clouds
7:53 PM 71.1 °F 33.1 °F 25% 29.39 in 10.0 mi SSW 19.6 mph 28.8 mph N/A   Scattered Clouds
8:53 PM 66.9 °F 23.0 °F 19% 29.42 in 10.0 mi SW 20.7 mph 32.2 mph N/A   Clear
9:53 PM 64.9 °F 26.1 °F 23% 29.47 in 10.0 mi West 13.8 mph 23.0 mph N/A   Overcast
10:53 PM 53.1 °F 39.0 °F 59% 29.54 in 9.0 mi NNW 28.8 mph 38.0 mph N/A   Overcast
11:00 PM 52.0 °F 39.9 °F 63% 29.65 in 9.0 mi WNW 20.7 mph 38.0 mph N/A   Overcast
11:51 PM 48.2 °F 46.4 °F 93% 29.67 in 5.0 mi NNW 9.2 mph - 0.05 in Rain Rain
11:53 PM 48.9 °F 45.0 °F 86% 29.58 in 5.0 mi NW 8.1 mph - 0.06 in Rain Light Rain